EW1134 Weather Reports


Display with metric or nautical units.
time (UTC)temp
F
wind
direction
speed
MPH
gust
MPH
rain 1hr
in
rain 24hr
in
rain mn
in
humidity
%
barometer
mb
20210728100005 96 29 8.0 17.0 0.00 0.00 0.00 13 1013.7
20210728095504 96 24 8.0 15.0 0.00 0.00 0.00 14 1013.6
20210728095004 96 3 9.0 18.0 0.00 0.00 0.00 14 1013.5
20210728094505 96 355 7.0 18.0 0.00 0.00 0.00 14 1013.6
20210728094004 96 359 8.0 20.0 0.00 0.00 0.00 15 1013.7
20210728093504 95 354 10.0 21.0 0.00 0.00 0.00 16 1013.4
20210728093006 95 354 10.0 21.0 0.00 0.00 0.00 16 1013.7
20210728092504 95 341 11.0 21.0 0.00 0.00 0.00 17 1013.7
20210728092004 95 342 11.0 21.0 0.00 0.00 0.00 17 1013.6
20210728091504 95 358 9.0 21.0 0.00 0.00 0.00 17 1013.7
20210728091003 95 347 9.0 22.0 0.00 0.00 0.00 17 1013.6
20210728090504 94 344 11.0 22.0 0.00 0.00 0.00 17 1013.8
20210728090004 94 348 10.0 22.0 0.00 0.00 0.00 17 1013.9
20210728085504 94 345 10.0 20.0 0.00 0.00 0.00 17 1013.8
20210728085004 94 340 11.0 21.0 0.00 0.00 0.00 18 1013.9
20210728084504 94 344 10.0 21.0 0.00 0.00 0.00 18 1013.8
20210728084003 94 8 10.0 22.0 0.00 0.00 0.00 18 1013.8
20210728083503 93 338 11.0 22.0 0.00 0.00 0.00 18 1013.9
20210728083004 94 301 11.0 18.0 0.00 0.00 0.00 18 1013.9
20210728082504 94 311 9.0 18.0 0.00 0.00 0.00 18 1013.9
20210728082004 94 342 9.0 21.0 0.00 0.00 0.00 20 1013.8
20210728081504 93 349 9.0 21.0 0.00 0.00 0.00 19 1014.1
20210728081003 94 343 8.0 21.0 0.00 0.00 0.00 19 1014.1
20210728080503 93 317 8.0 20.0 0.00 0.00 0.00 19 1014.0
20210728080004 92 311 9.0 20.0 0.00 0.00 0.00 22 1014.1
20210728075503 92 323 10.0 19.0 0.00 0.00 0.00 21 1014.2
20210728075003 91 322 9.0 16.0 0.00 0.00 0.00 22 1014.0
20210728074504 91 334 8.0 16.0 0.00 0.00 0.00 22 1014.1
20210728074003 91 333 8.0 17.0 0.00 0.00 0.00 23 1013.8
20210728073504 91 314 8.0 17.0 0.00 0.00 0.00 24 1014.3
20210728073005 91 320 8.0 16.0 0.00 0.00 0.00 24 1014.3
20210728072504 90 333 9.0 19.0 0.00 0.00 0.00 25 1014.2
20210728072003 90 2 9.0 19.0 0.00 0.00 0.00 25 1014.1
20210728071504 89 2 8.0 16.0 0.00 0.00 0.00 25 1014.0
20210728071003 89 338 8.0 19.0 0.00 0.00 0.00 26 1014.2
20210728070504 89 336 8.0 19.0 0.00 0.00 0.00 26 1014.2
20210728070004 89 339 7.0 20.0 0.00 0.00 0.00 26 1014.3
20210728065504 89 332 7.0 20.0 0.00 0.00 0.00 26 1014.2
20210728065004 89 326 8.0 18.0 0.00 0.00 0.00 26 1014.1
20210728064505 88 336 9.0 18.0 0.00 0.00 0.00 27 1014.1
20210728064004 88 331 8.0 14.0 0.00 0.00 0.00 27 1014.2
20210728063504 88 336 8.0 14.0 0.00 0.00 0.00 28 1014.3
20210728063004 87 348 9.0 15.0 0.00 0.00 0.00 29 1014.3
20210728062503 87 334 9.0 18.0 0.00 0.00 0.00 30 1014.3
20210728062004 87 329 10.0 18.0 0.00 0.00 0.00 29 1014.3
20210728061503 87 331 8.0 16.0 0.00 0.00 0.00 30 1014.4
20210728061004 86 324 6.0 13.0 0.00 0.00 0.00 30 1014.3
20210728060503 86 334 4.0 12.0 0.00 0.00 0.00 31 1014.6
20210728060004 84 261 2.0 10.0 0.00 0.00 0.00 34 1014.5
20210728055504 83 232 1.0 5.0 0.00 0.00 0.00 37 1014.7
20210728055003 82 224 1.0 4.0 0.00 0.00 0.00 37 1014.5
20210728054505 81 225 2.0 5.0 0.00 0.00 0.00 37 1014.4
20210728054003 81 211 3.0 6.0 0.00 0.00 0.00 37 1014.7
20210728053504 81 196 2.0 6.0 0.00 0.00 0.00 38 1014.6
20210728053004 80 210 3.0 7.0 0.00 0.00 0.00 39 1014.6
20210728052503 79 227 3.0 7.0 0.00 0.00 0.00 39 1014.5
20210728052003 79 236 2.0 7.0 0.00 0.00 0.00 39 1014.5
20210728051504 78 243 0.0 4.0 0.00 0.00 0.00 39 1014.6
20210728051003 78 242 1.0 7.0 0.00 0.00 0.00 41 1014.5
20210728050503 77 237 3.0 8.0 0.00 0.00 0.00 42 1014.6
20210728050004 76 215 4.0 8.0 0.00 0.00 0.00 43 1014.4
20210728045503 75 209 4.0 7.0 0.00 0.00 0.00 43 1014.4
20210728045003 75 226 4.0 7.0 0.00 0.00 0.00 42 1014.7
20210728044504 75 230 3.0 7.0 0.00 0.00 0.00 43 1014.6
20210728044003 74 230 3.0 6.0 0.00 0.00 0.00 43 1014.6
20210728043504 74 239 2.0 6.0 0.00 0.00 0.00 44 1014.6
20210728043004 73 240 1.0 4.0 0.00 0.00 0.00 44 1014.6
20210728042503 73 233 1.0 4.0 0.00 0.00 0.00 45 1014.4
20210728042004 72 229 2.0 7.0 0.00 0.00 0.00 45 1014.4
20210728041504 72 228 3.0 7.0 0.00 0.00 0.00 45 1014.5
20210728041004 72 240 4.0 8.0 0.00 0.00 0.00 45 1014.3
20210728040503 72 252 4.0 8.0 0.00 0.00 0.00 45 1014.4
20210728040004 72 248 3.0 7.0 0.00 0.00 0.00 45 1014.3
20210728035504 72 239 3.0 7.0 0.00 0.00 0.00 45 1014.3
20210728035003 72 229 2.0 7.0 0.00 0.00 0.00 45 1014.3
20210728034505 72 234 2.0 6.0 0.00 0.00 0.00 45 1014.4
20210728034004 72 238 3.0 7.0 0.00 0.00 0.00 44 1014.5
20210728033503 72 243 3.0 7.0 0.00 0.00 0.00 45 1014.3
20210728033004 72 252 2.0 7.0 0.00 0.00 0.00 45 1014.3
20210728032504 72 240 2.0 8.0 0.00 0.00 0.00 45 1014.4
20210728032004 72 239 2.0 8.0 0.00 0.00 0.00 45 1014.5
20210728031505 72 254 2.0 8.0 0.00 0.00 0.00 45 1014.3
20210728031004 72 266 2.0 8.0 0.00 0.00 0.00 45 1014.3
20210728030503 72 253 1.0 5.0 0.00 0.00 0.00 45 1014.2
20210728030004 72 235 1.0 5.0 0.00 0.00 0.00 45 1014.4
20210728025504 72 246 2.0 7.0 0.00 0.00 0.00 45 1014.4
20210728025003 71 245 2.0 7.0 0.00 0.00 0.00 45 1014.3
20210728024504 71 274 1.0 5.0 0.00 0.00 0.00 45 1014.3
20210728024004 72 266 1.0 5.0 0.00 0.00 0.00 45 1014.3
20210728023504 72 218 1.0 5.0 0.00 0.00 0.00 45 1014.2
20210728023004 72 244 0.0 4.0 0.00 0.00 0.00 45 1014.3
20210728022503 72 270 0.0 4.0 0.00 0.00 0.00 46 1014.3
20210728022003 72 237 0.0 3.0 0.00 0.00 0.00 46 1014.0
20210728021505 72 176 0.0 3.0 0.00 0.00 0.00 45 1014.2
20210728021003 71 178 0.0 3.0 0.00 0.00 0.00 46 1014.3
20210728020504 71 313 0.0 3.0 0.00 0.00 0.00 46 1014.2
20210728020004 71 275 1.0 3.0 0.00 0.00 0.00 46 1014.4
20210728015504 72 222 1.0 4.0 0.00 0.00 0.00 45 1014.3
20210728015004 72 219 2.0 8.0 0.00 0.00 0.00 45 1014.3
20210728014505 72 221 4.0 11.0 0.00 0.00 0.00 45 1014.2
20210728014004 72 226 5.0 11.0 0.00 0.00 0.00 44 1014.2
20210728013504 72 242 4.0 9.0 0.00 0.00 0.00 44 1014.1
20210728013004 72 238 4.0 9.0 0.00 0.00 0.00 44 1014.1
20210728012503 73 227 4.0 8.0 0.00 0.00 0.00 44 1014.2
20210728012003 73 241 3.0 8.0 0.00 0.00 0.00 43 1014.3
20210728011504 73 257 2.0 6.0 0.00 0.00 0.00 42 1014.3
20210728011003 73 269 2.0 6.0 0.00 0.00 0.00 43 1014.3
20210728010505 73 268 3.0 6.0 0.00 0.00 0.00 42 1014.4
20210728010004 72 255 2.0 6.0 0.00 0.00 0.00 43 1014.2
20210728005503 72 247 1.0 4.0 0.00 0.00 0.00 43 1014.3
20210728005003 72 255 1.0 4.0 0.00 0.00 0.00 44 1014.4
20210728004504 72 324 0.0 4.0 0.00 0.00 0.00 44 1014.4
20210728004004 72 88 0.0 3.0 0.00 0.00 0.00 44 1014.6
20210728003503 73 236 0.0 4.0 0.00 0.00 0.00 43 1014.5
20210728003006 73 145 1.0 4.0 0.00 0.00 0.00 43 1014.5
20210728002504 73 135 1.0 4.0 0.00 0.00 0.00 42 1014.5
20210728002004 74 230 1.0 4.0 0.00 0.00 0.00 42 1014.6
20210728001504 73 259 1.0 5.0 0.00 0.00 0.00 42 1014.4
20210728001004 73 261 1.0 5.0 0.00 0.00 0.00 42 1014.6
20210728000504 73 236 1.0 5.0 0.00 0.00 0.00 42 1014.6
20210728000004 74 227 1.0 5.0 0.00 0.00 0.00 41 1014.7
20210727235503 74 208 1.0 4.0 0.00 0.00 0.00 40 1014.8
20210727235004 75 217 1.0 5.0 0.00 0.00 0.00 39 1014.8
20210727234504 75 266 2.0 8.0 0.00 0.00 0.00 39 1014.8
20210727234004 75 270 3.0 8.0 0.00 0.00 0.00 40 1014.6
20210727233503 75 266 2.0 6.0 0.00 0.00 0.00 40 1014.5
20210727233004 74 258 2.0 5.0 0.00 0.00 0.00 41 1014.6
20210727232505 74 238 2.0 5.0 0.00 0.00 0.00 40 1014.8
20210727232004 74 227 2.0 5.0 0.00 0.00 0.00 40 1014.8
20210727231504 74 223 2.0 6.0 0.00 0.00 0.00 39 1015.1
20210727231004 74 224 3.0 8.0 0.00 0.00 0.00 39 1015.1
20210727230504 75 234 3.0 8.0 0.00 0.00 0.00 39 1015.1
20210727230004 75 233 3.0 6.0 0.00 0.00 0.00 39 1014.9
20210727225504 75 239 3.0 7.0 0.00 0.00 0.00 39 1014.9
20210727225004 75 251 4.0 8.0 0.00 0.00 0.00 39 1015.1
20210727224505 75 263 3.0 8.0 0.00 0.00 0.00 39 1015.0
20210727224004 75 270 1.0 5.0 0.00 0.00 0.00 39 1015.1
20210727223504 75 233 0.0 4.0 0.00 0.00 0.00 38 1015.2
20210727223004 76 144 1.0 4.0 0.00 0.00 0.00 38 1014.9
20210727222505 76 261 1.0 6.0 0.00 0.00 0.00 38 1015.0
20210727222004 76 270 3.0 7.0 0.00 0.00 0.00 38 1015.1
20210727221504 76 270 3.0 8.0 0.00 0.00 0.00 39 1014.9
20210727221003 76 265 3.0 8.0 0.00 0.00 0.00 39 1015.0
20210727220505 76 249 2.0 6.0 0.00 0.00 0.00 38 1015.0
20210727220004 76 213 1.0 4.0 0.00 0.00 0.00 38 1015.2
20210727215503 77 204 2.0 5.0 0.00 0.00 0.00 38 1015.2
20210727215004 77 225 3.0 7.0 0.00 0.00 0.00 38 1015.1
20210727214505 77 221 4.0 7.0 0.00 0.00 0.00 38 1014.8
20210727214004 77 214 4.0 7.0 0.00 0.00 0.00 38 1015.0
20210727213504 77 221 4.0 7.0 0.00 0.00 0.00 37 1015.0
20210727213005 77 225 3.0 6.0 0.00 0.00 0.00 36 1014.9
20210727212505 77 231 3.0 6.0 0.00 0.00 0.00 36 1015.0
20210727212004 77 238 3.0 7.0 0.00 0.00 0.00 36 1014.9
20210727211504 78 249 3.0 8.0 0.00 0.00 0.00 36 1014.8
20210727211003 78 251 4.0 8.0 0.00 0.00 0.00 35 1014.9
20210727210503 78 245 3.0 8.0 0.00 0.00 0.00 35 1014.8
20210727210004 78 241 2.0 6.0 0.00 0.00 0.00 35 1015.2
20210727205504 78 225 2.0 5.0 0.00 0.00 0.00 35 1014.9
20210727205004 78 233 2.0 5.0 0.00 0.00 0.00 34 1014.9
20210727204504 79 246 1.0 4.0 0.00 0.00 0.00 34 1014.7
20210727204004 79 194 1.0 3.0 0.00 0.00 0.00 34 1014.8
20210727203504 79 148 0.0 3.0 0.00 0.00 0.00 34 1014.6
20210727203005 79 240 0.0 3.0 0.00 0.00 0.00 33 1014.7
20210727202504 79 239 1.0 4.0 0.00 0.00 0.00 33 1014.8
20210727202004 80 225 2.0 4.0 0.00 0.00 0.00 33 1014.7
20210727201505 80 229 2.0 6.0 0.00 0.00 0.00 33 1014.7
20210727201003 80 228 3.0 6.0 0.00 0.00 0.00 32 1014.8
20210727200505 80 225 4.0 6.0 0.00 0.00 0.00 31 1014.6
20210727200004 81 232 4.0 6.0 0.00 0.00 0.00 31 1014.7
20210727195504 81 232 4.0 7.0 0.00 0.00 0.00 30 1014.8
20210727195004 81 232 4.0 7.0 0.00 0.00 0.00 29 1014.6
20210727194505 81 234 3.0 5.0 0.00 0.00 0.00 30 1014.8
20210727194004 81 225 2.0 5.0 0.00 0.00 0.00 29 1014.6
20210727193504 81 225 3.0 6.0 0.00 0.00 0.00 29 1014.7
20210727193005 81 225 4.0 6.0 0.00 0.00 0.00 29 1014.6
20210727192504 82 221 2.0 6.0 0.00 0.00 0.00 27 1014.6
20210727192004 84 310 1.0 4.0 0.00 0.00 0.00 25 1014.8
20210727191504 84 340 2.0 4.0 0.00 0.00 0.00 23 1014.7
20210727191004 84 336 2.0 7.0 0.00 0.00 0.00 23 1014.6
20210727190503 83 329 2.0 7.0 0.00 0.00 0.00 24 1014.6
20210727190004 84 310 1.0 4.0 0.00 0.00 0.00 24 1014.6
20210727185503 84 307 0.0 4.0 0.00 0.00 0.00 24 1014.5
20210727185003 84 320 1.0 4.0 0.00 0.00 0.00 24 1014.3
20210727184505 84 266 1.0 4.0 0.00 0.00 0.00 23 1014.7
20210727184004 84 225 1.0 4.0 0.00 0.00 0.00 24 1014.4
20210727183504 85 38 0.0 2.0 0.00 0.00 0.00 23 1014.3
20210727183005 85 11 0.0 2.0 0.00 0.00 0.00 23 1014.3
20210727182504 85 16 0.0 4.0 0.00 0.00 0.00 22 1014.3
20210727182003 85 150 0.0 4.0 0.00 0.00 0.00 22 1014.2
20210727181504 86 74 1.0 5.0 0.00 0.00 0.00 22 1014.0
20210727181004 86 55 1.0 5.0 0.00 0.00 0.00 21 1014.0
20210727180503 86 90 0.0 3.0 0.00 0.00 0.00 22 1014.0
20210727180004 86 68 1.0 4.0 0.00 0.00 0.00 21 1013.8
20210727175504 86 51 1.0 4.0 0.00 0.00 0.00 21 1014.2
20210727175005 86 79 1.0 4.0 0.00 0.00 0.00 22 1014.1
20210727174504 87 112 1.0 4.0 0.00 0.00 0.00 21 1013.9
20210727174004 87 110 1.0 4.0 0.00 0.00 0.00 20 1013.9
20210727173504 87 90 2.0 5.0 0.00 0.00 0.00 20 1014.0
20210727173005 88 101 2.0 5.0 0.00 0.00 0.00 20 1014.0
20210727172504 88 96 2.0 6.0 0.00 0.00 0.00 20 1014.0
20210727172004 88 78 2.0 6.0 0.00 0.00 0.00 20 1014.2
20210727171505 89 68 3.0 6.0 0.00 0.00 0.00 19 1014.4
20210727171004 89 66 3.0 6.0 0.00 0.00 0.00 19 1014.3
20210727170504 89 68 3.0 7.0 0.00 0.00 0.00 18 1014.3
20210727170004 90 63 3.0 7.0 0.00 0.00 0.00 18 1014.1
20210727165503 90 68 3.0 7.0 0.00 0.00 0.00 18 1014.2
20210727165004 91 72 2.0 6.0 0.00 0.00 0.00 18 1014.2
20210727164504 91 72 3.0 8.0 0.00 0.00 0.00 18 1014.2
20210727164004 91 72 5.0 8.0 0.00 0.00 0.00 17 1014.2
20210727163504 91 74 5.0 10.0 0.00 0.00 0.00 16 1014.0
20210727163004 91 67 4.0 10.0 0.00 0.00 0.00 16 1014.2
20210727162504 91 56 4.0 8.0 0.00 0.00 0.00 16 1014.4
20210727162004 92 69 4.0 8.0 0.00 0.00 0.00 16 1014.2
20210727161503 92 80 4.0 9.0 0.00 0.00 0.00 15 1014.1
20210727161004 92 90 5.0 13.0 0.00 0.00 0.00 15 1014.1
20210727160504 92 91 5.0 13.0 0.00 0.00 0.00 15 1014.1
20210727160004 92 96 3.0 7.0 0.00 0.00 0.00 15 1014.0
20210727155503 93 90 4.0 13.0 0.00 0.00 0.00 15 1013.9
20210727155004 93 60 4.0 13.0 0.00 0.00 0.00 15 1014.1
20210727154504 94 60 3.0 10.0 0.00 0.00 0.00 15 1014.3
20210727154004 94 42 3.0 8.0 0.00 0.00 0.00 16 1014.4
20210727153504 94 2 4.0 8.0 0.00 0.00 0.00 16 1014.3
20210727153005 94 336 4.0 11.0 0.00 0.00 0.00 16 1014.5
20210727152504 94 334 5.0 12.0 0.00 0.00 0.00 16 1014.3
20210727152003 94 357 5.0 13.0 0.00 0.00 0.00 15 1014.5
20210727151504 94 14 5.0 13.0 0.00 0.00 0.00 15 1014.4
20210727151003 95 7 4.0 13.0 0.00 0.00 0.00 15 1014.4
20210727150504 94 22 5.0 12.0 0.00 0.00 0.00 15 1014.6
20210727150004 95 5 5.0 12.0 0.00 0.00 0.00 15 1014.7
20210727145504 95 338 5.0 13.0 0.00 0.00 0.00 15 1014.6
20210727145004 94 3 7.0 13.0 0.00 0.00 0.00 15 1014.5
20210727144504 95 29 7.0 13.0 0.00 0.00 0.00 15 1014.7
20210727144004 95 37 7.0 14.0 0.00 0.00 0.00 15 1014.5
20210727143503 95 33 7.0 18.0 0.00 0.00 0.00 14 1014.7
20210727143005 95 55 6.0 18.0 0.00 0.00 0.00 14 1014.7
20210727142504 95 64 6.0 13.0 0.00 0.00 0.00 16 1014.7
20210727142004 96 34 5.0 12.0 0.00 0.00 0.00 14 1014.8
20210727141504 95 23 6.0 15.0 0.00 0.00 0.00 13 1014.8
20210727141004 95 37 8.0 15.0 0.00 0.00 0.00 13 1014.7
20210727140504 95 43 7.0 13.0 0.00 0.00 0.00 13 1014.6
20210727140005 96 31 5.0 13.0 0.00 0.00 0.00 13 1014.8
20210727135504 96 16 5.0 13.0 0.00 0.00 0.00 13 1014.9
20210727135004 96 31 6.0 15.0 0.00 0.00 0.00 13 1014.7
20210727134505 96 44 7.0 15.0 0.00 0.00 0.00 13 1014.7
20210727134004 96 45 7.0 17.0 0.00 0.00 0.00 13 1014.8
20210727133503 96 19 7.0 17.0 0.00 0.00 0.00 12 1014.9
20210727133004 96 3 6.0 13.0 0.00 0.00 0.00 13 1014.7
20210727132504 96 24 5.0 14.0 0.00 0.00 0.00 13 1014.7
20210727132003 95 26 7.0 18.0 0.00 0.00 0.00 13 1014.7
20210727131504 95 40 7.0 18.0 0.00 0.00 0.00 13 1014.9
20210727131003 96 59 5.0 16.0 0.00 0.00 0.00 12 1014.8
20210727130504 96 25 6.0 14.0 0.00 0.00 0.00 12 1014.7
20210727130004 96 18 7.0 14.0 0.00 0.00 0.00 12 1014.7
20210727125504 96 47 6.0 13.0 0.00 0.00 0.00 13 1014.8
20210727125004 96 71 7.0 14.0 0.00 0.00 0.00 13 1014.7
20210727124504 96 77 7.0 14.0 0.00 0.00 0.00 13 1014.7
20210727124004 96 76 6.0 13.0 0.00 0.00 0.00 13 1014.8
20210727123503 97 63 5.0 13.0 0.00 0.00 0.00 13 1014.8
20210727123004 97 340 5.0 15.0 0.00 0.00 0.00 13 1014.8
20210727122504 96 21 7.0 15.0 0.00 0.00 0.00 13 1015.1
20210727122003 96 71 7.0 15.0 0.00 0.00 0.00 13 1015.3
20210727121504 96 38 6.0 13.0 0.00 0.00 0.00 13 1015.2
20210727121004 96 24 6.0 16.0 0.00 0.00 0.00 13 1015.3
20210727120503 95 18 6.0 16.0 0.00 0.00 0.00 13 1015.4
20210727120004 95 28 7.0 14.0 0.00 0.00 0.00 13 1015.2
20210727115503 95 48 7.0 15.0 0.00 0.00 0.00 13 1015.3
20210727115004 95 43 6.0 16.0 0.00 0.00 0.00 13 1015.4
20210727114504 95 40 6.0 16.0 0.00 0.00 0.00 13 1015.3
20210727114004 95 44 8.0 17.0 0.00 0.00 0.00 14 1015.5
20210727113504 95 48 8.0 17.0 0.00 0.00 0.00 14 1015.5
20210727113004 95 52 6.0 15.0 0.00 0.00 0.00 14 1015.4
20210727112504 95 44 7.0 17.0 0.00 0.00 0.00 15 1015.5
20210727112004 95 24 7.0 17.0 0.00 0.00 0.00 15 1015.8
20210727111505 95 5 7.0 13.0 0.00 0.00 0.00 14 1015.6
20210727111004 95 334 6.0 13.0 0.00 0.00 0.00 14 1015.6
20210727110503 95 325 5.0 13.0 0.00 0.00 0.00 15 1015.7
20210727110004 95 347 6.0 16.0 0.00 0.00 0.00 15 1015.5
20210727105504 95 4 6.0 16.0 0.00 0.00 0.00 15 1015.7
20210727105004 95 26 7.0 16.0 0.00 0.00 0.00 15 1015.7
20210727104505 95 39 7.0 16.0 0.00 0.00 0.00 15 1015.7
20210727104004 95 33 7.0 16.0 0.00 0.00 0.00 15 1015.8
20210727103503 95 24 7.0 16.0 0.00 0.00 0.00 15 1015.9
20210727103004 95 29 6.0 15.0 0.00 0.00 0.00 15 1015.8
20210727102504 94 26 7.0 14.0 0.00 0.00 0.00 16 1015.9
20210727102004 94 10 7.0 14.0 0.00 0.00 0.00 16 1015.8
20210727101505 94 9 6.0 18.0 0.00 0.00 0.00 16 1015.9
20210727101004 94 351 6.0 18.0 0.00 0.00 0.00 16 1015.9
20210727100503 94 337 6.0 15.0 0.00 0.00 0.00 16 1016.1